Regional Weather Roundup
Issued by NWS Portland, ME

Current Version | Previous Version | Text Only | Print | Product List | Glossary Off
Versions: 1 2 3 4 5 6 7 8 9 10 11 12 13 14 15 16 17 18 19 20 21 22 23 24 25 26 27 28 29 30 31 32 33 34 35 36 37 38 39 40 41 42 43 44 45 46 47 48 49 50

997
ASUS41 KGYX 232010
RWRGYX
WEATHER ROUNDUP FOR MAINE AND NEW HAMPSHIRE
NATIONAL WEATHER SERVICE GRAY ME
400 PM EDT MON APR 23 2018

MEZ002-005-006-010-012-015-018-020-021-024-026-027-029-232100-
MAINE

CITY           SKY/WX    TMP DP  RH WIND       PRES   REMARKS
PORTLAND       FAIR      57  18  21 S15G26    30.41F
SANFORD        FAIR      61  20  20 SE10      30.39F
BAR HARBOR     FAIR      56  24  29 SW16      30.38F
WISCASSET      FAIR      60  19  20 S8        30.40F
ROCKLAND       FAIR      55  26  32 S10       30.40F
FRYEBURG       FAIR      66  13  12 VRB3      30.36F
LEWISTONAUBURN FAIR      64  15  15 W6        30.37F
AUGUSTA        FAIR      65  14  14 NW7       30.36F
WATERVILLE     FAIR      64  14  14 SW8G16    30.33F
BANGOR         FAIR      64  11  12 W7        30.36F
GREENVILLE       N/A     58  14  17 VRB7      30.32F
MILLINOCKET    FAIR      62  14  15 W8        30.34F
HOULTON        FAIR      58  11  15 SW8       30.32F
PRESQUE ISLE   FAIR      58  10  15 W8        30.32F
FRENCHVILLE    FAIR      56   9  15 W3        30.29F
CARIBOU        FAIR      58   7  13 W7        30.30F
$$

NHZ002-005-008-009-011-012-014-232100-
NEW HAMPSHIRE

CITY           SKY/WX    TMP DP  RH WIND       PRES   REMARKS
ROCHESTER      FAIR      65  23  20 SE10      30.38F
NASHUA         FAIR      65  15  14 VRB5      30.39F
MANCHESTER     FAIR      67  10  11 SW5       30.37F
CONCORD        FAIR      66  11  11 W6        30.37F
LACONIA        FAIR      64  12  13 SW7       30.37F
PLYMOUTH       FAIR      66   9  11 MISG      30.36F
BERLIN         FAIR      62  12  14 VRB3      30.35F
WHITEFIELD     FAIR      64  11  12 VRB5      30.36F
JAFFREY        FAIR      65  10  11 W6        30.38F
LEBANON        FAIR      67  15  13 VRB3      30.36F
MT WASHINGTON  PTSUNNY   34  16  47 SW3         N/A
$$

VTZ005-007-008-232100-
VERMONT

CITY           SKY/WX    TMP DP  RH WIND       PRES   REMARKS
ST JOHNSBURY     N/A     64  12  13 MISG      30.34F
MONTPELIER     FAIR      63  13  14 CALM      30.39F
BURLINGTON     FAIR      67  12  12 VRB6      30.35F
$$

MAZ007-012-024-CTZ003-RIZ002-NYZ038-NYZ072-232100-
SOUTHERN NEW ENGLAND AND NY

CITY           SKY/WX    TMP DP  RH WIND       PRES   REMARKS
BOSTON         FAIR      53  28  38 E16       30.44F
WORCESTER      FAIR      62  17  17 S7        30.40F
NANTUCKET      FAIR      56  17  21 E9        30.46S
PROVIDENCE     FAIR      60  25  26 S20       30.44S
HARTFORD       FAIR      68  13  12 S7        30.40F
ALBANY         FAIR      67   7   9 S5        30.37F
NEW YORK CITY  FAIR      63  29  27 S9        30.43F
$$

ANZ081-ANZ082-ANZ150-NHZ014-MEZ023>029-232100-
COASTAL MARINE OBSERVATIONS

STATION/POSITION TIME  TEMP    WIND        PRES    WAVE
                       AIR SEA DIR/SP/G            HT/PER
                 (UTC) (F)     (DEG/KT/KT) (MB)    (FT/S)
MOUNT DESERT ROC 2000   44     200/ 15/ 16 1030.0F
MATINICUS ROCK   2000   45     200/ 13/ 14 1029.6F
ISLE OF SHOALS   2000   47     170/ 16/ 17 1029.9F
JEFFREYS LEDGE   1936      45                N/A     1
CASHES LEDGE BUO 1950   47 45              1030.8F   1
$$

.............KEY..............
   WCI - WIND CHILL
   TC  - TEMPERATURE IN CELSIUS
   VSB - VISIBILITY IN MILES
   HX  - HEAT INDEX
   FAIR- INDICATES FEW OR NO CLOUDS BELOW 12,000 FT, WITH NO
         SIGNIFICANT WEATHER AND/OR OBSTRUCTIONS TO VISIBILITY.






USA.gov is the U.S. government's official web portal to all federal, state and local government web resources and services.